Flag for Saint Lucia Weather past 2 weeks in Vieux Fort, Saint Lucia

Now
81 °F

Partly sunny.


Feels Like: 87 °F
Forecast: N/A
Wind: 16 mph from East

Location: Hewanorra International Airport

Current Time: May 28, 2015 at 5:25:34 PM

Latest Report: May 28, 2015 at 4:00 PM


Visibility: N/A

Pressure: 29.92 "Hg

Humidity: 89%

Dew point: 77 °F

Location of Vieux FortLocation

Historic Weather in Vieux Fort — Graph

°F

Vieux Fort temperature yesterday

Maximum temperature yesterday: 86 °F (at 12:00 PM)
Minimum temperature yesterday: 75 °F (at 5:00 AM)
Average temperature yesterday: 82 °F

Past Weeks' High & Low Weather Summary

 TemperatureHumidityPressure
High88 °F (May 20, 1:00 PM)94% (May 17, 6:00 AM)30.09 "Hg (May 17, 6:00 AM)
Low75 °F (May 17, 6:00 AM)59% (May 21, 2:00 PM)29.92 "Hg (May 20, 4:00 PM)
Average82 °F74%30.00 "Hg
* Reported May 13 4:00 PM — May 28 4:00 PM, Vieux Fort, Weather by CustomWeather, © 2015

Note: Actual official high and low records may vary slightly from our data, if they occured in-between our weather recording intervals... More about our weather records

Advertising

Vieux Fort weather history for previous 24 hours

 ConditionsComfort  
Time TempWeatherWind HumidityBarometerVisibility
4:00 PM
Thu, May 28
81 °FPartly sunny.16 mph89%29.92 "HgN/A
3:00 PM81 °FSprinkles. Scattered clouds.15 mph84%29.92 "HgN/A
2:00 PM84 °FBroken clouds.20 mph79%29.95 "HgN/A
1:00 PM86 °FScattered clouds.20 mph75%29.95 "HgN/A
12:00 PM86 °FPassing clouds.20 mph70%29.95 "HgN/A
11:00 AM86 °FScattered clouds.20 mph75%29.98 "HgN/A
10:00 AM84 °FBroken clouds.18 mph74%29.98 "HgN/A
9:00 AM84 °FPartly sunny.17 mph74%29.98 "HgN/A
8:00 AM81 °FBroken clouds.15 mph84%29.98 "HgN/A
6:00 AM79 °FScattered clouds.15 mph89%29.92 "HgN/A
5:00 AM79 °FPartly cloudy.16 mph89%29.92 "HgN/A
4:00 AM77 °FPassing clouds.17 mph94%29.92 "HgN/A
3:00 AM79 °FSprinkles. Passing clouds.17 mph84%29.92 "HgN/A
2:00 AM81 °FPassing clouds.15 mph79%29.92 "HgN/A
1:00 AM81 °FPassing clouds.16 mph79%29.95 "HgN/A
12:00 AM81 °FPassing clouds.15 mph79%29.95 "HgN/A
11:00 PM
Wed, May 27
81 °FPassing clouds.16 mph74%29.98 "HgN/A
10:00 PM81 °FPassing clouds.17 mph79%29.98 "HgN/A
9:00 PM81 °FPassing clouds.15 mph74%29.98 "HgN/A
8:00 PM81 °FPassing clouds.16 mph74%29.95 "HgN/A
7:00 PM81 °FPassing clouds.15 mph79%29.95 "HgN/A
6:00 PM82 °FScattered clouds.14 mph70%29.92 "HgN/A
5:00 PM84 °FScattered clouds.16 mph70%29.92 "HgN/A
Weather by CustomWeather, © 2015

See weather overviewHow to use our weather pages